Time,TemperatureF,DewpointF,PressureIn,WindDirection,WindDirectionDegrees,WindSpeedMPH,WindSpeedGustMPH,Humidity,HourlyPrecipIn,Conditions,Clouds,dailyrainin,SolarRadiationWatts/m^2,SoftwareType,DateUTC
2013-03-26 00:22:00,5.0,0.0,-100.00,NE,34,5.0,9.0,80,0.00,,,0.00,0.000000,,2013-03-26 08:22:00,
2013-03-26 00:32:00,5.0,0.0,-100.00,NE,34,5.0,9.0,80,0.00,,,0.00,0.000000,,2013-03-26 08:32:00,
2013-03-26 00:42:00,5.0,0.0,-100.00,NE,34,5.0,9.0,80,0.00,,,0.00,0.000000,,2013-03-26 08:42:00,
2013-03-26 00:52:00,5.0,0.0,-100.00,NE,34,5.0,9.0,80,0.00,,,0.00,0.000000,,2013-03-26 08:52:00,
2013-03-26 01:22:00,4.0,-1.0,-100.00,NE,37,5.0,14.0,80,0.00,,,0.00,0.000000,,2013-03-26 09:22:00,
2013-03-26 01:32:00,4.0,-1.0,-100.00,NE,37,5.0,14.0,80,0.00,,,0.00,0.000000,,2013-03-26 09:32:00,
2013-03-26 01:42:00,4.0,-1.0,-100.00,NE,37,5.0,14.0,80,0.00,,,0.00,0.000000,,2013-03-26 09:42:00,
2013-03-26 01:52:00,4.0,-1.0,-100.00,NE,37,5.0,14.0,80,0.00,,,0.00,0.000000,,2013-03-26 09:52:00,
2013-03-26 02:22:00,3.0,-2.0,-100.00,NE,42,4.0,10.0,78,0.00,,,0.00,0.000000,,2013-03-26 10:22:00,
2013-03-26 02:32:00,3.0,-2.0,-100.00,NE,42,4.0,10.0,78,0.00,,,0.00,0.000000,,2013-03-26 10:32:00,
2013-03-26 02:42:00,3.0,-2.0,-100.00,NE,42,4.0,10.0,78,0.00,,,0.00,0.000000,,2013-03-26 10:42:00,
2013-03-26 02:52:00,3.0,-2.0,-100.00,NE,42,4.0,10.0,78,0.00,,,0.00,0.000000,,2013-03-26 10:52:00,
2013-03-26 03:22:00,2.0,-3.0,-100.00,NNE,26,4.0,13.0,78,0.00,,,0.00,0.000000,,2013-03-26 11:22:00,
2013-03-26 03:32:00,2.0,-3.0,-100.00,NNE,26,4.0,13.0,78,0.00,,,0.00,0.000000,,2013-03-26 11:32:00,
2013-03-26 03:42:00,2.0,-3.0,-100.00,NNE,26,4.0,13.0,78,0.00,,,0.00,0.000000,,2013-03-26 11:42:00,
2013-03-26 03:52:00,2.0,-3.0,-100.00,NNE,26,4.0,13.0,78,0.00,,,0.00,0.000000,,2013-03-26 11:52:00,
2013-03-26 04:21:00,2.0,-4.0,-100.00,NNE,27,5.0,11.0,77,0.00,,,0.00,0.000000,,2013-03-26 12:21:00,
2013-03-26 04:32:00,2.0,-4.0,-100.00,NNE,27,5.0,11.0,77,0.00,,,0.00,0.000000,,2013-03-26 12:32:00,
2013-03-26 04:42:00,2.0,-4.0,-100.00,NNE,27,5.0,11.0,77,0.00,,,0.00,0.000000,,2013-03-26 12:42:00,
2013-03-26 04:52:00,2.0,-4.0,-100.00,NNE,27,5.0,11.0,77,0.00,,,0.00,0.000000,,2013-03-26 12:52:00,
2013-03-26 05:22:00,3.0,-2.0,-100.00,NNE,17,3.0,10.0,78,0.00,,,0.00,0.000000,,2013-03-26 13:22:00,
2013-03-26 05:32:00,3.0,-2.0,-100.00,NNE,17,3.0,10.0,78,0.00,,,0.00,0.000000,,2013-03-26 13:32:00,
2013-03-26 05:42:00,3.0,-2.0,-100.00,NNE,17,3.0,10.0,78,0.00,,,0.00,0.000000,,2013-03-26 13:42:00,
2013-03-26 05:52:00,3.0,-2.0,-100.00,NNE,17,3.0,10.0,78,0.00,,,0.00,0.000000,,2013-03-26 13:52:00,
2013-03-26 06:22:00,2.0,-4.0,-100.00,NNE,13,4.0,10.0,77,0.00,,,0.00,0.000000,,2013-03-26 14:22:00,
2013-03-26 06:32:00,2.0,-4.0,-100.00,NNE,13,4.0,10.0,77,0.00,,,0.00,0.000000,,2013-03-26 14:32:00,
2013-03-26 06:42:00,2.0,-4.0,-100.00,NNE,13,4.0,10.0,77,0.00,,,0.00,0.000000,,2013-03-26 14:42:00,
2013-03-26 06:52:00,2.0,-4.0,-100.00,NNE,13,4.0,10.0,77,0.00,,,0.00,0.000000,,2013-03-26 14:52:00,
2013-03-26 07:22:00,2.0,-4.0,-100.00,NNE,22,4.0,10.0,77,0.00,,,0.00,0.000000,,2013-03-26 15:22:00,
2013-03-26 07:33:00,2.0,-4.0,-100.00,NNE,22,4.0,10.0,77,0.00,,,0.00,0.000000,,2013-03-26 15:33:00,
2013-03-26 07:42:00,2.0,-4.0,-100.00,NNE,22,4.0,10.0,77,0.00,,,0.00,0.000000,,2013-03-26 15:42:00,
2013-03-26 07:52:00,2.0,-4.0,-100.00,NNE,22,4.0,10.0,77,0.00,,,0.00,0.000000,,2013-03-26 15:52:00,
2013-03-26 08:22:00,2.0,-3.0,-100.00,NNE,25,3.0,7.0,78,0.00,,,0.00,1.000000,,2013-03-26 16:22:00,
2013-03-26 08:32:00,2.0,-3.0,-100.00,NNE,25,3.0,7.0,78,0.00,,,0.00,1.000000,,2013-03-26 16:32:00,
2013-03-26 08:42:00,2.0,-3.0,-100.00,NNE,25,3.0,7.0,78,0.00,,,0.00,1.000000,,2013-03-26 16:42:00,
2013-03-26 08:53:00,2.0,-3.0,-100.00,NNE,25,3.0,7.0,78,0.00,,,0.00,1.000000,,2013-03-26 16:53:00,
2013-03-26 09:32:00,3.0,-2.0,-100.00,NNE,19,4.0,6.0,79,0.00,,,0.00,17.000000,,2013-03-26 17:32:00,
2013-03-26 09:42:00,3.0,-2.0,-100.00,NNE,19,4.0,6.0,79,0.00,,,0.00,17.000000,,2013-03-26 17:42:00,
2013-03-26 09:52:00,3.0,-2.0,-100.00,NNE,19,4.0,6.0,79,0.00,,,0.00,17.000000,,2013-03-26 17:52:00,
2013-03-26 10:23:00,5.0,0.0,-100.00,NNE,24,4.0,8.0,78,0.00,,,0.00,54.000000,,2013-03-26 18:23:00,
2013-03-26 10:33:00,5.0,0.0,-100.00,NNE,24,4.0,8.0,78,0.00,,,0.00,54.000000,,2013-03-26 18:33:00,
2013-03-26 10:42:00,5.0,0.0,-100.00,NNE,24,4.0,8.0,78,0.00,,,0.00,54.000000,,2013-03-26 18:42:00,
2013-03-26 10:52:00,5.0,0.0,-100.00,NNE,24,4.0,8.0,78,0.00,,,0.00,54.000000,,2013-03-26 18:52:00,
2013-03-26 11:22:00,6.0,0.0,-100.00,NNE,22,4.0,7.0,77,0.00,,,0.00,83.000000,,2013-03-26 19:22:00,
2013-03-26 11:32:00,6.0,0.0,-100.00,NNE,22,4.0,7.0,77,0.00,,,0.00,83.000000,,2013-03-26 19:32:00,
2013-03-26 11:42:00,6.0,0.0,-100.00,NNE,22,4.0,7.0,77,0.00,,,0.00,83.000000,,2013-03-26 19:42:00,
2013-03-26 11:52:00,6.0,0.0,-100.00,NNE,22,4.0,7.0,77,0.00,,,0.00,83.000000,,2013-03-26 19:52:00,
2013-03-26 12:22:00,15.0,9.0,-100.00,North,356,4.0,6.0,78,0.00,,,0.00,177.000000,,2013-03-26 20:22:00,
2013-03-26 12:42:00,15.0,9.0,-100.00,North,356,4.0,6.0,78,0.00,,,0.00,177.000000,,2013-03-26 20:42:00,
2013-03-26 12:52:00,15.0,9.0,-100.00,North,356,4.0,6.0,78,0.00,,,0.00,177.000000,,2013-03-26 20:52:00,
2013-03-26 13:22:00,18.0,11.0,-100.00,North,1,4.0,10.0,74,0.00,,,0.00,292.000000,,2013-03-26 21:22:00,
2013-03-26 13:32:00,18.0,11.0,-100.00,North,1,4.0,10.0,74,0.00,,,0.00,292.000000,,2013-03-26 21:32:00,
2013-03-26 13:42:00,18.0,11.0,-100.00,North,1,4.0,10.0,74,0.00,,,0.00,292.000000,,2013-03-26 21:42:00,
2013-03-26 13:52:00,18.0,11.0,-100.00,North,1,4.0,10.0,74,0.00,,,0.00,292.000000,,2013-03-26 21:52:00,
2013-03-26 14:22:00,20.0,12.0,-100.00,NNW,328,3.0,7.0,72,0.07,,,0.07,346.000000,,2013-03-26 22:22:00,
2013-03-26 14:33:00,20.0,12.0,-100.00,NNW,328,3.0,7.0,72,0.07,,,0.07,346.000000,,2013-03-26 22:33:00,
2013-03-26 14:42:00,20.0,12.0,-100.00,NNW,328,3.0,7.0,72,0.07,,,0.07,346.000000,,2013-03-26 22:42:00,
2013-03-26 14:52:00,20.0,12.0,-100.00,NNW,328,3.0,7.0,72,0.07,,,0.07,346.000000,,2013-03-26 22:52:00,
2013-03-26 15:22:00,17.0,9.0,-100.00,West,281,3.0,8.0,69,0.04,,,0.11,306.000000,,2013-03-26 23:22:00,
2013-03-26 15:32:00,17.0,9.0,-100.00,West,281,3.0,8.0,69,0.04,,,0.11,306.000000,,2013-03-26 23:32:00,
2013-03-26 15:42:00,17.0,9.0,-100.00,West,281,3.0,8.0,69,0.04,,,0.11,306.000000,,2013-03-26 23:42:00,
2013-03-26 16:22:00,18.0,9.0,-100.00,West,276,4.0,7.0,68,0.00,,,0.11,291.000000,,2013-03-27 00:22:00,
2013-03-26 16:32:00,18.0,9.0,-100.00,West,276,4.0,7.0,68,0.00,,,0.11,291.000000,,2013-03-27 00:32:00,
2013-03-26 16:42:00,18.0,9.0,-100.00,West,276,4.0,7.0,68,0.00,,,0.11,291.000000,,2013-03-27 00:42:00,
2013-03-26 16:52:00,18.0,9.0,-100.00,West,276,4.0,7.0,68,0.00,,,0.11,291.000000,,2013-03-27 00:52:00,
2013-03-26 17:22:00,17.0,8.0,-100.00,SW,218,5.0,9.0,68,0.01,,,0.12,302.000000,,2013-03-27 01:22:00,
2013-03-26 17:32:00,17.0,8.0,-100.00,SW,218,5.0,9.0,68,0.01,,,0.12,302.000000,,2013-03-27 01:32:00,
2013-03-26 17:42:00,17.0,8.0,-100.00,SW,218,5.0,9.0,68,0.01,,,0.12,302.000000,,2013-03-27 01:42:00,
2013-03-26 17:52:00,17.0,8.0,-100.00,SW,218,5.0,9.0,68,0.01,,,0.12,302.000000,,2013-03-27 01:52:00,
2013-03-26 18:22:00,17.0,8.0,-100.00,West,272,3.0,8.0,67,0.05,,,0.17,204.000000,,2013-03-27 02:22:00,
2013-03-26 18:32:00,17.0,8.0,-100.00,West,272,3.0,8.0,67,0.05,,,0.17,204.000000,,2013-03-27 02:32:00,
2013-03-26 18:42:00,17.0,8.0,-100.00,West,272,3.0,8.0,67,0.05,,,0.17,204.000000,,2013-03-27 02:42:00,
2013-03-26 18:52:00,17.0,8.0,-100.00,West,272,3.0,8.0,67,0.05,,,0.17,204.000000,,2013-03-27 02:52:00,
2013-03-26 19:22:00,14.0,5.0,-100.00,WSW,241,3.0,7.0,67,0.02,,,0.19,129.000000,,2013-03-27 03:22:00,
2013-03-26 19:33:00,14.0,5.0,-100.00,WSW,241,3.0,7.0,67,0.02,,,0.19,129.000000,,2013-03-27 03:33:00,
2013-03-26 19:42:00,14.0,5.0,-100.00,WSW,241,3.0,7.0,67,0.02,,,0.19,129.000000,,2013-03-27 03:42:00,
2013-03-26 19:52:00,14.0,5.0,-100.00,WSW,241,3.0,7.0,67,0.02,,,0.19,129.000000,,2013-03-27 03:52:00,
2013-03-26 20:23:00,14.0,7.0,-100.00,NE,44,3.0,5.0,73,0.00,,,0.19,85.000000,,2013-03-27 04:23:00,
2013-03-26 20:33:00,14.0,7.0,-100.00,NE,44,3.0,5.0,73,0.00,,,0.19,85.000000,,2013-03-27 04:33:00,
2013-03-26 20:42:00,14.0,7.0,-100.00,NE,44,3.0,5.0,73,0.00,,,0.19,85.000000,,2013-03-27 04:42:00,
2013-03-26 20:52:00,14.0,7.0,-100.00,NE,44,3.0,5.0,73,0.00,,,0.19,85.000000,,2013-03-27 04:52:00,
2013-03-26 21:22:00,7.0,2.0,-100.00,NE,49,3.0,5.0,78,0.00,,,0.19,9.000000,,2013-03-27 05:22:00,
2013-03-26 21:32:00,7.0,2.0,-100.00,NE,49,3.0,5.0,78,0.00,,,0.19,9.000000,,2013-03-27 05:32:00,
2013-03-26 21:42:00,7.0,2.0,-100.00,NE,49,3.0,5.0,78,0.00,,,0.19,9.000000,,2013-03-27 05:42:00,
2013-03-26 21:52:00,7.0,2.0,-100.00,NE,49,3.0,5.0,78,0.00,,,0.19,9.000000,,2013-03-27 05:52:00,
2013-03-26 22:22:00,6.0,0.0,-100.00,SE,129,3.0,4.0,77,0.00,,,0.19,0.000000,,2013-03-27 06:22:00,
2013-03-26 22:32:00,6.0,0.0,-100.00,SE,129,3.0,4.0,77,0.00,,,0.19,0.000000,,2013-03-27 06:32:00,
2013-03-26 22:42:00,6.0,0.0,-100.00,SE,129,3.0,4.0,77,0.00,,,0.19,0.000000,,2013-03-27 06:42:00,
2013-03-26 22:52:00,6.0,0.0,-100.00,SE,129,3.0,4.0,77,0.00,,,0.19,0.000000,,2013-03-27 06:52:00,
2013-03-26 23:22:00,6.0,1.0,-100.00,North,8,3.0,4.0,79,0.00,,,-99.99,0.000000,,2013-03-27 07:22:00,
2013-03-26 23:32:00,6.0,1.0,-100.00,North,8,3.0,4.0,79,0.00,,,-99.99,0.000000,,2013-03-27 07:32:00,
2013-03-26 23:42:00,6.0,1.0,-100.00,North,8,3.0,4.0,79,0.00,,,-99.99,0.000000,,2013-03-27 07:42:00,
2013-03-26 23:53:00,6.0,1.0,-100.00,North,8,3.0,4.0,79,0.00,,,-99.99,0.000000,,2013-03-27 07:53:00,